Preview of NWS' New Version of Forecast
This preview is not operational and should not be used for support decisions.
Latest weather observations around

Little Rock, Adams Field (KLIT)

Using English Units (Switch to International System of Units)
Date/ Time (CDT) Wind (mph) Vis. (mi) Weather Sky Cond. Temp (°F) Rel. Humidity Wind Chill (°F) Heat Index (°F) Pressure Precip. (in)
Air Dwpt 6 hour Altimeter (inHg) Sea level (inHg) 1 hr 3 hr 6 hr
Max Min
Jun 19 03:53 SW 3 10 Mostly Cloudy BKN250 73 69     87%   74 29.78 29.78      
Jun 19 02:53 SW 6 10 Mostly Cloudy FEW050 BKN250 73 69     87%   74 29.82 29.82      
Jun 19 01:53 WSW 5 10 Mostly Cloudy SCT050 BKN250 74 69     85%   75 29.84 29.84      
Jun 19 00:53 WSW 6 10 Partly Cloudy FEW055 SCT250 75 69     82%   76 29.85 29.84      
Jun 18 23:53 Calm 10 Partly Cloudy FEW070 SCT250 76 69     79%   77 29.85 29.85      
Jun 18 22:53 Calm 10 Mostly Clear FEW250 78 68     71%   79 29.85 29.85      
Jun 18 21:53 Calm 10 Clear CLR 79 68     69%   80 29.84 29.83      
Jun 18 20:53 SSW 5 10 Mostly Clear FEW050 FEW250 79 69     72%   80 29.82 29.82      
Jun 18 19:53 SW 8 10 Partly Cloudy FEW035 SCT250 83 68     61%   86 29.81 29.81      
Jun 18 18:53 WSW 8 10 Partly Cloudy SCT042 SCT250 85 67     55%   88 29.81 29.8      
Jun 18 17:53 WSW 7 10 Partly Cloudy SCT045 SCT250 85 67     55%   88 29.81 29.81      
Jun 18 16:53 WSW 9 10 Partly Cloudy SCT042 SCT250 86 67     53%   89 29.83 29.83      
Jun 18 15:53 W 7 10 Mostly Cloudy SCT042 BKN065 87 67     51%   90 29.84 29.84      
Jun 18 14:53 N 10 10 Mostly Cloudy SCT050 BKN065 87 66     50%   89 29.87 29.86      
Jun 18 13:53 NW 8 10 Mostly Cloudy BKN045 BKN060 86 67     53%   89 29.88 29.88      
Jun 18 12:53 WNW 8 10 Mostly Cloudy BKN040 BKN060 84 65     53%   86 29.9 29.9      
Jun 18 11:53 W 8 10 Mostly Cloudy BKN035 84 67     57%   87 29.91 29.91      
Jun 18 11:34 W 8 10 Mostly Cloudy BKN030 82 66     58%   84 29.9        
Jun 18 10:53 5 10 Mostly Cloudy BKN025 82 67     60%   85 29.91 29.91      
Jun 18 09:53 WSW 10 10 Mostly Cloudy BKN020 BKN250 80 67     64%   82 29.92 29.91      
Jun 18 09:44 W 8 10 Mostly Cloudy BKN020 BKN250 80 67     64%   82 29.92        
Jun 18 08:53 Calm 7 Partly Cloudy SCT010 SCT250 77 70     79%   78 29.92 29.91      
Jun 18 08:31 Calm 7 Partly Cloudy SCT006 SCT250 74 70     87%   75 29.92        
Jun 18 08:26 S 3 6 Fog/Mist BKN006 74 70     87%   75 29.92        
Jun 18 07:53 W 6 5 Fog/Mist OVC005 72 70     93%   73 29.91 29.91      
Jun 18 06:53 SSW 3 5 Fog/Mist OVC005 71 70     96%   72 29.89 29.89      
Jun 18 06:01 S 5 4 Fog/Mist OVC005 70 69     97%     29.89        
Jun 18 05:53 SSE 5 6 Fog/Mist SCT005 SCT250 69 69     100%     29.89 29.89      
Jun 18 05:18 S 5 10 Mostly Cloudy FEW008 SCT065 BKN250 71 70     96%   72 29.89        
Jun 18 04:53 S 3 10 Cloudy BKN008 OVC065 72 70     93%   73 29.9 29.9      
Jun 18 03:53 Calm 10 Cloudy OVC008 73 70     90%   74 29.9 29.9      
Jun 18 02:53 SW 6 10 Cloudy OVC007 72 70     93%   73 29.91 29.91      
Jun 18 02:21 SSW 5 10 Cloudy BKN009 OVC060 72 70     93%   73 29.91        
Jun 18 01:53 SSW 5 10 Cloudy BKN055 OVC070 72 70     93%   73 29.91 29.91      
Jun 18 00:53 S 8 10 Mostly Cloudy FEW050 BKN085 72 70     93%   73 29.91 29.91      
Jun 17 23:53 SSE 7 10 Mostly Cloudy SCT060 BKN080 74 70     87%   75 29.92 29.91      
Jun 17 22:53 SSE 6 10 Mostly Cloudy BKN055 BKN080 BKN250 74 70     87%   75 29.91 29.91      
Jun 17 21:53 SSE 5 10 Cloudy SCT043 BKN065 OVC080 77 68     74%   78 29.89 29.89      
Jun 17 20:53 WSW 3 10 Mostly Cloudy FEW050 BKN070 BKN250 79 67     67%   80 29.87 29.87      
Jun 17 19:53 SW 6 10 Mostly Cloudy FEW045 BKN080 BKN250 81 67     62%   83 29.87 29.87      
Jun 17 18:53 SSW 6 10 Mostly Cloudy SCT045 BKN080 BKN250 81 67     62%   83 29.86 29.86      
Jun 17 17:53 S 8 10 Mostly Cloudy SCT045 BKN080 BKN250 82 67     60%   85 29.87 29.87      
Jun 17 16:53 S 13 10 Mostly Cloudy SCT040 SCT100 BKN250 84 67     57%   87 29.88 29.88      
Jun 17 15:53 SSE 7 10 Mostly Cloudy SCT035 BKN100 BKN250 83 68     61%   86 29.89 29.88      
Jun 17 14:53 5 10 Mostly Cloudy SCT032 BKN100 BKN250 81 68     65%   84 29.91 29.91      
Jun 17 13:53 SSW 10 10 Mostly Cloudy SCT030 BKN110 BKN250 80 66     62%   82 29.93 29.93      
Jun 17 12:53 6 10 Mostly Cloudy SCT025 BKN100 BKN250 79 66     65%   80 29.94 29.94      
Jun 17 11:53 WSW 6 10 Mostly Cloudy FEW020 BKN120 BKN250 75 66     74%   76 29.95 29.94      
Jun 17 10:53 3 10 Mostly Cloudy FEW015 BKN110 BKN250 73 65     76%   74 29.93 29.93      
Jun 17 09:53 W 5 10 Mostly Cloudy SCT012 BKN100 BKN250 71 65     81%   72 29.93 29.93      
Jun 17 08:53 SSW 8 10 Mostly Cloudy BKN012 BKN100 BKN250 70 65     84%     29.93 29.93      
Jun 17 07:53 SW 8 10 Mostly Cloudy BKN012 BKN120 BKN250 68 65     90%     29.92 29.92      
Jun 17 06:53 SW 8 10 Cloudy BKN012 BKN120 OVC250 67 65     93%     29.93 29.93      
Jun 17 06:48 SW 5 10 Cloudy BKN012 BKN120 OVC250 66 64     94%     29.93        
Jun 17 05:53 SW 8 10 Cloudy SCT015 BKN120 OVC250 67 65     93%     29.9 29.9      
Jun 17 04:53 SSW 7 10 Cloudy SCT017 BKN150 OVC250 68 65     90%     29.89 29.89      
Jun 17 03:53 S 6 10 Cloudy SCT018 BKN150 OVC250 68 66     93%     29.88 29.88      
Jun 17 02:53 SW 7 10 Cloudy SCT010 BKN150 OVC250 68 66     93%     29.89 29.89      
Jun 17 01:53 WSW 6 10 Mostly Cloudy FEW150 BKN250 68 66     93%     29.87 29.87      
Jun 17 00:53 SSE 5 10 Clear   70 67     90%     29.86 29.85      
Jun 16 23:53 SSE 8 10 Cloudy SCT150 OVC250 70 67     90%     29.88 29.88      
Jun 16 22:53 S 6 10 Cloudy SCT075 SCT150 OVC250 71 67     87%   72 29.89 29.88      
Jun 16 21:53 S 8 10 Cloudy FEW120 OVC250 73 67     81%   74 29.9 29.9      
Jun 16 20:53 S 7 10 Cloudy FEW070 FEW120 OVC250 74 66     76%   75 29.89 29.88      
Jun 16 19:53 SSW 9 10 Cloudy FEW045 FEW100 OVC250 77 65     66%   78 29.86 29.85      
Jun 16 18:53 SW 11 10 Mostly Cloudy FEW045 FEW100 BKN250 80 64     58%   82 29.83 29.82      
Jun 16 17:53 SW 14 10 Mostly Cloudy FEW045 FEW100 BKN250 82 63     53%   83 29.83 29.83      
Jun 16 16:53   10 Mostly Cloudy FEW045 FEW100 BKN250 82 66     58%   84 29.87 29.86      
Jun 16 15:53   10 Mostly Cloudy FEW040 FEW100 BKN250 84 65     53%   86 29.89 29.89      
Jun 16 14:53 SW 13 10 Mostly Cloudy FEW040 SCT120 BKN250 84 67     57%   87 29.9 29.9      
Jun 16 13:53 SW 11 10 Mostly Cloudy FEW040 SCT090 BKN250 83 65     55%   85 29.88 29.87      
Jun 16 12:53 S 10 10 Mostly Cloudy FEW035 SCT100 BKN250 84 68     59%   87 29.86 29.85      
Jun 16 11:53 SW 10 10 Mostly Cloudy FEW030 SCT100 BKN250 83 67     59%   86 29.89 29.88      
Jun 16 10:53 SW 7 10 Mostly Cloudy FEW025 BKN100 BKN250 84 71     65%   89 29.9 29.89      
Jun 16 09:53 6 10 Mostly Cloudy FEW020 SCT080 BKN250 82 72     72%   87 29.9 29.9      
Jun 16 09:20 SW 6 10 Mostly Cloudy SCT022 BKN050 BKN250 81 73     77%   86 29.9        
Jun 16 08:53 WSW 8 10 Mostly Cloudy BKN022 BKN050 BKN250 79 73     82%   82 29.91 29.91      
Jun 16 08:10 SW 11 10 Mostly Cloudy BKN020 BKN035 BKN250 78 72     82%   79 29.92        
Jun 16 07:53 SSW 10 10 Mostly Cloudy SCT015 BKN035 BKN250 78 72     82%   79 29.91 29.91      
Jun 16 06:53 SW 7 10 Cloudy SCT019 SCT045 BKN120 OVC250 76 72     88%   77 29.92 29.92      
Jun 16 06:44 SW 9 10 Cloudy SCT019 SCT045 BKN120 OVC250 76 72     88%   77 29.92        
Jun 16 05:53 SW 7 10 Cloudy BKN012 OVC017 76 72     88%   77 29.91 29.91      
Jun 16 05:28 SW 7 10 Cloudy BKN014 OVC030 76 72     88%   77 29.9        
Jun 16 04:53 SSW 13 10 Cloudy SCT014 OVC032 75 72     90%   76 29.87 29.87      
Jun 16 04:16 SSW 9 10 Cloudy SCT012 OVC032 75 72     90%   76 29.88        
Jun 16 03:34 S 7 10 Cloudy BKN029 OVC100 74 72     94%   75 29.87        
Jun 16 02:53 S 7 10 Mostly Cloudy FEW100 BKN250 75 71     88%   76 29.86 29.85      
May 14 19:53 S 6 10 Clear   82 64     55%   84 29.88 29.88      
May 14 06:53 SE 3 10 Mostly Cloudy BKN250 69 69     100%     30.01 30.01      
May 13 23:53 SSW 7 10 Clear CLR 74 69     85%   75 30.01 30.01      
May 13 21:53 S 8 10 Clear CLR 75 69     82%   76 29.99 29.98      
May 13 08:53 WSW 7 10 Clear CLR 76 67     74%   77 30.09 30.09      
May 13 05:53 Calm 10 Clear CLR 66 63     90%     30.05 30.04      
May 13 01:53 S 7 10 Clear CLR 69 63     81%     30.01 30.01      
May 12 15:53 S 9 10 Clear   87 63     45%   88 30.01 30.01      
May 11 20:53 S 8 10 Mostly Clear FEW250 75 63     66%   75 29.93 29.93      
May 11 10:53 SW 11 10 Mostly Clear FEW050 80 62     54%   81 30.02 30.02      
Jun 12 06:38 SSE 5 1 Light Drizzle and Fog/Mist SKC OVC005 71 71     100%   73 30.04   0    
Jun 12 03:28 S 6 10 Mostly Cloudy BKN013 72 70     93%   73 30        
Jun 11 18:53 S 10 10 Mostly Clear FEW050 86 67     53%   89 29.96 29.95      
Jun 11 15:53 S 10 10 Partly Cloudy SCT050 87 66     50%   89 29.99 29.99      
Jun 11 13:53 S 11 10 Partly Cloudy SCT050 87 64     46%   88 30.03 30.02      
Jun 11 08:53 S 6 10 Partly Cloudy SCT065 76 69     79%   77 30.04 30.03      
Jun 09 18:53 S 6 10 Mostly Cloudy FEW030 BKN250 78 57     48%   78 29.91 29.91      
Jun 09 14:53   10 Mostly Cloudy FEW060 BKN250 82 53     37%   81 29.95 29.95      
Jun 09 04:53 WSW 3 10 Clear CLR 59 59     100%     29.93 29.93      
Jun 06 12:53 ENE 13 10 Partly Cloudy SCT030 86 69     57%   90 29.82 29.82      
Jun 06 11:53 NE 11 10 Partly Cloudy SCT026 85 72     65%   91 29.83 29.82      
Jun 06 09:53 NE 10 10 Partly Cloudy FEW015 SCT250 80 73     79%   84 29.84 29.84      
Jun 05 13:53 E 5 7 Mostly Cloudy FEW015 BKN025 BKN250 77 71     82%   78 29.77 29.76 0